Location: *
(51.5000°N, 0.1100°W)
Time: 17:45:13
(UTC+00:00)

Lacrosse 5 rocket - Pass Details

Date: 25 May 2024
Orbit: 445 x 572 km, 57.0° (Epoch: 16 June)

Event Time Altitude Azimuth Distance (km) Brightness Sun altitude
Rises 02:20:36 0° 293° (WNW) 2,723 4.7 -11.0°
Reaches altitude 10° 02:23:36 10° 270° (W) 1,798 3.6 -10.7°
Maximum altitude 02:25:59 15° 234° (SW) 1,469 2.9 -10.5°
Enters shadow 02:26:31 15° 225° (SW) 1,481 2.9 -10.5°
